GW5189 Weather Reports


time (UTC)temp
C
wind
direction
speed
KPH
gust
KPH
rain 1hr
cm
rain 24hr
cm
rain mn
cm
humidity
%
barometer
mb
20260505140519 12 156 3.2 17.7 0.00 0.05 0.05 55 1010.2
20260505124932 13 86 1.6 9.7 0.00 0.05 0.05 60 1009.1
20260505124429 12 160 3.2 9.7 0.00 0.05 0.05 61 1009.3
20260505123925 12 232 3.2 9.7 0.00 0.05 0.05 63 1009.2
20260505123422 12 121 0.0 3.2 0.00 0.05 0.05 64 1008.9
20260505122917 12 96 0.0 1.6 0.00 0.05 0.05 64 1008.8
20260505122415 12 172 3.2 9.7 0.00 0.05 0.05 63 1009.0
20260505121912 12 100 1.6 6.4 0.00 0.05 0.05 66 1009.0
20260505121409 12 191 3.2 11.3 0.00 0.05 0.05 66 1009.0
20260505120904 12 151 3.2 6.4 0.00 0.05 0.05 67 1008.9
20260505120401 12 207 4.8 9.7 0.00 0.05 0.05 68 1008.9
20260505115900 12 106 0.0 3.2 0.00 0.05 0.05 69 1009.1
20260505115357 12 276 3.2 11.3 0.00 0.05 0.05 69 1009.1
20260505114855 12 165 3.2 6.4 0.00 0.05 0.05 69 1009.1
20260505114351 12 241 6.4 9.7 0.00 0.05 0.05 68 1009.2
20260505113847 12 280 1.6 4.8 0.00 0.05 0.05 68 1009.1
20260505113344 12 123 3.2 4.8 0.00 0.05 0.05 67 1009.1
20260505112840 12 271 3.2 6.4 0.00 0.05 0.05 67 1009.0
20260505112337 12 238 4.8 6.4 0.00 0.05 0.05 68 1009.1
20260505111833 12 136 1.6 6.4 0.00 0.05 0.05 68 1009.1
20260505111328 12 125 1.6 6.4 0.00 0.05 0.05 69 1009.1
20260505110825 12 87 0.0 4.8 0.00 0.05 0.05 71 1009.1
20260505110322 12 272 1.6 3.2 0.00 0.05 0.05 72 1009.2
20260505101757 12 314 1.6 3.2 0.00 0.05 0.05 72 1009.2
20260505101252 12 349 1.6 1.6 0.18 0.05 0.05 69 1009.3
20260505100749 13 9 1.6 1.6 0.30 0.05 0.05 66 1009.1
20260505100246 13 85 0.0 1.6 0.00 0.00 0.00 63 1009.0
20260505095741 13 276 1.6 6.4 0.00 0.00 0.00 60 1009.2
20260505095239 13 190 1.6 4.8 0.00 0.00 0.00 57 1009.0
20260505094734 13 262 6.4 6.4 0.00 0.00 0.00 56 1009.2
20260505094231 13 257 1.6 3.2 0.00 0.00 0.00 57 1009.2
20260505093727 13 143 1.6 3.2 0.00 0.00 0.00 57 1009.3
20260505093225 13 113 0.0 4.8 0.00 0.00 0.00 57 1009.4
20260505092722 13 155 3.2 6.4 0.00 0.00 0.00 56 1009.1
20260505092221 13 286 1.6 3.2 0.00 0.00 0.00 56 1009.1
20260505091717 13 310 1.6 3.2 0.00 0.00 0.00 56 1009.1
20260505091215 13 243 1.6 4.8 0.00 0.00 0.00 56 1009.1
20260505090713 14 85 0.0 3.2 0.00 0.00 0.00 55 1009.2
20260505090211 14 84 1.6 3.2 0.00 0.00 0.00 55 1009.1
20260505085708 13 189 3.2 4.8 0.00 0.00 0.00 55 1009.2
20260505085206 13 283 1.6 3.2 0.00 0.00 0.00 56 1009.2
20260505084703 13 259 1.6 4.8 0.00 0.00 0.00 56 1009.3
20260505084202 13 28 0.0 1.6 0.00 0.00 0.00 56 1009.3
20260505083659 13 135 1.6 9.7 0.00 0.00 0.00 56 1009.4
20260505083155 13 153 1.6 4.8 0.00 0.00 0.00 57 1009.3
20260505082651 13 98 0.0 3.2 0.00 0.00 0.00 58 1009.4
20260505082148 13 230 6.4 9.7 0.00 0.00 0.00 57 1009.4
20260505081644 13 212 6.4 9.7 0.00 0.00 0.00 57 1009.2
20260505081142 13 217 3.2 4.8 0.00 0.00 0.00 56 1009.7
20260505080638 13 172 3.2 9.7 0.00 0.00 0.00 56 1009.4
20260505080134 13 194 3.2 4.8 0.00 0.00 0.00 56 1009.6
20260505075631 13 171 6.4 11.3 0.00 0.00 0.00 55 1009.8
20260505075128 13 222 1.6 12.9 0.00 0.00 0.00 55 1009.8
20260505074624 13 187 6.4 9.7 0.00 0.00 0.00 55 1009.4
20260505074121 13 132 3.2 14.5 0.00 0.00 0.00 55 1009.6
20260505073619 13 201 11.3 12.9 0.00 0.00 0.00 55 1009.4
20260505073118 14 219 11.3 16.1 0.00 0.00 0.00 54 1009.4
20260505072613 14 145 3.2 11.3 0.00 0.00 0.00 53 1009.6
20260505072109 14 134 9.7 16.1 0.00 0.00 0.00 53 1009.4
20260505071605 14 108 3.2 9.7 0.00 0.00 0.00 51 1009.6
20260505071103 14 142 4.8 12.9 0.00 0.00 0.00 51 1009.2
20260505070600 14 246 4.8 11.3 0.00 0.00 0.00 50 1009.3
20260505070056 13 218 6.4 9.7 0.00 0.00 0.00 51 1009.3
20260505065552 13 196 6.4 12.9 0.00 0.00 0.00 51 1009.4
20260505065049 13 259 8.0 16.1 0.00 0.00 0.00 51 1009.2
20260505064546 13 115 6.4 11.3 0.00 0.00 0.00 52 1009.3
20260505064044 13 255 3.2 11.3 0.00 0.00 0.00 52 1009.4
20260505063541 13 91 3.2 9.7 0.00 0.00 0.00 53 1009.3
20260505063037 13 151 8.0 9.7 0.00 0.00 0.00 53 1009.2
20260505062534 13 76 3.2 6.4 0.00 0.00 0.00 54 1009.6
20260505062031 13 241 4.8 6.4 0.00 0.00 0.00 54 1009.4
20260505061529 13 206 3.2 4.8 0.00 0.00 0.00 54 1009.4
20260505061026 13 124 3.2 14.5 0.00 0.00 0.00 54 1009.6
20260505060523 14 195 8.0 16.1 0.00 0.00 0.00 54 1009.3
20260505060020 14 142 6.4 12.9 0.00 0.00 0.00 54 1009.4
20260505055515 14 198 6.4 17.7 0.00 0.00 0.00 54 1009.6
20260505055012 14 230 4.8 17.7 0.00 0.00 0.00 53 1009.4
20260505054510 14 178 3.2 12.9 0.00 0.00 0.00 54 1009.6
20260505054008 14 91 1.6 14.5 0.00 0.00 0.00 54 1009.3
20260505053505 14 129 1.6 11.3 0.00 0.00 0.00 55 1009.4
20260505053001 14 85 1.6 6.4 0.00 0.00 0.00 55 1009.4
20260505052458 14 185 4.8 6.4 0.00 0.00 0.00 55 1009.3
20260505051955 15 261 6.4 11.3 0.00 0.00 0.00 55 1009.2
20260505051452 15 201 6.4 11.3 0.00 0.00 0.00 54 1009.3
20260505050951 15 36 9.7 11.3 0.00 0.00 0.00 53 1009.2
20260505050448 15 247 8.0 12.9 0.00 0.00 0.00 51 1009.2
20260505041416 17 147 3.2 9.7 0.00 0.00 0.00 40 1008.3
20260505040913 17 98 1.6 4.8 0.00 0.00 0.00 40 1008.3
20260505040411 17 142 3.2 4.8 0.00 0.00 0.00 40 1008.1
20260505035907 17 184 1.6 4.8 0.00 0.00 0.00 40 1008.1
20260505035403 17 106 4.8 11.3 0.00 0.00 0.00 40 1007.7
20260505034901 17 215 4.8 6.4 0.00 0.00 0.00 41 1007.7
20260505034357 17 238 3.2 11.3 0.00 0.00 0.00 42 1008.0
20260505033854 17 150 1.6 14.5 0.00 0.00 0.00 41 1007.7
20260505033351 17 222 6.4 11.3 0.00 0.00 0.00 41 1007.8
20260505032849 17 229 1.6 11.3 0.00 0.00 0.00 40 1007.7
20260505032345 17 268 8.0 11.3 0.00 0.00 0.00 39 1007.6
20260505031842 18 111 3.2 12.9 0.00 0.00 0.00 38 1007.6
20260505031339 18 144 4.8 11.3 0.00 0.00 0.00 38 1007.6
20260505030836 18 197 3.2 6.4 0.00 0.00 0.00 38 1007.5
20260505030332 18 270 1.6 11.3 0.00 0.00 0.00 38 1007.4
20260505025828 18 95 3.2 9.7 0.00 0.00 0.00 38 1007.5
20260505025326 18 100 3.2 4.8 0.00 0.00 0.00 38 1007.2
20260505024824 18 141 6.4 12.9 0.00 0.00 0.00 38 1007.5
20260505024321 18 204 4.8 6.4 0.00 0.00 0.00 37 1007.4
20260505023818 18 165 4.8 6.4 0.00 0.00 0.00 36 1007.2
20260505023315 18 298 3.2 12.9 0.00 0.00 0.00 35 1006.9
20260505022813 18 133 3.2 11.3 0.00 0.00 0.00 34 1006.9
20260505022309 18 164 3.2 6.4 0.00 0.00 0.00 35 1007.0
20260505021806 18 146 3.2 4.8 0.00 0.00 0.00 35 1006.9
20260505021303 19 69 0.0 1.6 0.00 0.00 0.00 35 1006.9
20260505020759 19 125 4.8 6.4 0.00 0.00 0.00 34 1006.9
20260505020254 19 188 3.2 9.7 0.00 0.00 0.00 34 1006.9
20260505015752 20 160 6.4 9.7 0.00 0.00 0.00 34 1006.9
20260505015249 20 167 3.2 9.7 0.00 0.00 0.00 32 1007.0
20260505014746 20 173 3.2 6.4 0.00 0.00 0.00 30 1006.9
20260505014243 20 107 1.6 3.2 0.00 0.00 0.00 29 1006.8
20260505013739 20 87 0.0 3.2 0.00 0.00 0.00 31 1007.0
20260505013237 20 115 3.2 6.4 0.00 0.00 0.00 31 1006.9
20260505012735 20 262 3.2 4.8 0.00 0.00 0.00 31 1007.2
20260505012232 20 67 0.0 4.8 0.00 0.00 0.00 30 1006.9
20260505011727 20 56 0.0 1.6 0.00 0.00 0.00 32 1007.0
20260505011225 20 58 3.2 4.8 0.00 0.00 0.00 32 1007.2
20260505010720 20 59 0.0 1.6 0.00 0.00 0.00 32 1007.2
20260505010217 20 56 0.0 4.8 0.00 0.00 0.00 31 1007.5
20260505005713 20 65 0.0 3.2 0.00 0.00 0.00 32 1007.2
20260505005211 20 68 1.6 3.2 0.00 0.00 0.00 32 1007.2
20260505004708 20 55 0.0 3.2 0.00 0.00 0.00 32 1007.3
20260505004204 20 66 1.6 3.2 0.00 0.00 0.00 32 1007.2
20260505003701 20 37 0.0 1.6 0.00 0.00 0.00 32 1007.3
20260505003159 20 66 0.0 9.7 0.00 0.00 0.00 32 1007.3
20260505002655 20 77 3.2 6.4 0.00 0.00 0.00 31 1007.4
20260505002153 20 66 0.0 6.4 0.00 0.00 0.00 32 1007.4
20260505001650 20 42 1.6 9.7 0.00 0.00 0.00 32 1007.5
20260505001147 20 56 6.4 14.5 0.00 0.00 0.00 33 1007.4
20260505000644 20 57 8.0 14.5 0.00 0.00 0.00 32 1007.7
20260505000142 20 66 6.4 14.5 0.00 0.00 0.00 32 1007.5
20260504235638 20 77 4.8 12.9 0.00 0.00 0.00 33 1007.6
20260504235135 20 49 1.6 12.9 0.00 0.00 0.00 32 1007.6
20260504234632 20 71 4.8 17.7 0.00 0.00 0.00 33 1008.0
20260504234130 20 54 8.0 14.5 0.00 0.00 0.00 33 1008.0
20260504233625 20 104 8.0 12.9 0.00 0.00 0.00 32 1007.7
20260504233121 21 47 4.8 16.1 0.00 0.00 0.00 31 1007.8
20260504232619 21 63 1.6 9.7 0.00 0.00 0.00 31 1008.1
20260504232116 21 80 3.2 11.3 0.00 0.00 0.00 29 1008.0
20260504231613 21 70 1.6 3.2 0.00 0.00 0.00 28 1007.7
20260504231109 22 73 1.6 11.3 0.00 0.00 0.00 28 1007.8
20260504230604 22 69 3.2 4.8 0.00 0.00 0.00 28 1007.7
20260504230104 21 19 3.2 6.4 0.00 0.00 0.00 30 1007.8
20260504225601 21 46 4.8 14.5 0.00 0.00 0.00 30 1007.8
20260504225058 21 53 6.4 14.5 0.00 0.00 0.00 31 1008.1
20260504224554 20 65 12.9 17.7 0.00 0.00 0.00 31 1008.2
20260504224052 21 152 11.3 17.7 0.00 0.00 0.00 30 1008.0
20260504223548 21 103 6.4 16.1 0.00 0.00 0.00 31 1008.0
20260504223044 21 84 4.8 12.9 0.00 0.00 0.00 29 1007.8
20260504222541 22 91 3.2 9.7 0.00 0.00 0.00 28 1008.0
20260504222038 22 75 3.2 6.4 0.00 0.00 0.00 27 1008.3
20260504221536 22 233 3.2 6.4 0.00 0.00 0.00 27 1008.1
20260504221032 21 270 4.8 16.1 0.00 0.00 0.00 27 1008.0
20260504220529 21 256 8.0 11.3 0.00 0.00 0.00 28 1007.8
20260504220026 20 208 3.2 12.9 0.00 0.00 0.00 31 1008.0
20260504215522 20 258 11.3 12.9 0.00 0.00 0.00 30 1007.8
20260504215020 20 247 8.0 14.5 0.00 0.00 0.00 30 1008.3
20260504214516 20 291 6.4 14.5 0.00 0.00 0.00 30 1007.7
20260504214012 20 269 11.3 14.5 0.00 0.00 0.00 29 1008.2
20260504213509 21 247 9.7 14.5 0.00 0.00 0.00 29 1008.0
20260504213006 21 275 6.4 17.7 0.00 0.00 0.00 28 1007.8
20260504212502 21 270 11.3 12.9 0.00 0.00 0.00 26 1007.7
20260504211959 21 273 6.4 9.7 0.00 0.00 0.00 25 1007.8
20260504211456 21 208 8.0 16.1 0.00 0.00 0.00 24 1008.1
20260504210953 22 270 4.8 16.1 0.00 0.00 0.00 24 1008.2
20260504210450 22 236 9.7 14.5 0.00 0.00 0.00 24 1008.1
20260504205947 22 241 4.8 11.3 0.00 0.00 0.00 24 1008.1
20260504205444 22 80 1.6 6.4 0.00 0.00 0.00 25 1008.2
20260504204942 22 252 3.2 4.8 0.00 0.00 0.00 26 1008.3
20260504204440 22 238 9.7 11.3 0.00 0.00 0.00 25 1008.4
20260504203939 22 277 8.0 12.9 0.00 0.00 0.00 26 1008.2
20260504203437 23 246 3.2 6.4 0.00 0.00 0.00 26 1008.2
20260504202932 22 54 0.0 3.2 0.00 0.00 0.00 26 1008.1
20260504202429 22 260 4.8 9.7 0.00 0.00 0.00 26 1008.3
20260504201926 23 275 1.6 4.8 0.00 0.00 0.00 27 1008.3
20260504201423 23 252 3.2 4.8 0.00 0.00 0.00 27 1008.4
20260504200921 23 70 1.6 3.2 0.00 0.00 0.00 26 1008.4
20260504200417 23 74 0.0 4.8 0.00 0.00 0.00 26 1008.4
20260504195914 22 279 4.8 6.4 0.00 0.00 0.00 26 1008.3
20260504195410 23 16 0.0 3.2 0.00 0.00 0.00 26 1008.5
20260504194907 23 109 0.0 4.8 0.00 0.00 0.00 26 1008.5
20260504194402 23 203 3.2 3.2 0.00 0.00 0.00 25 1008.5
20260504193859 24 66 0.0 11.3 0.00 0.00 0.00 26 1008.5
20260504193356 25 190 6.4 11.3 0.00 0.00 0.00 24 1008.8
20260504192855 25 57 1.6 3.2 0.00 0.00 0.00 24 1008.6
20260504192352 25 124 1.6 3.2 0.00 0.00 0.00 24 1008.6
20260504191850 25 166 6.4 11.3 0.00 0.00 0.00 23 1008.6
20260504191348 26 59 3.2 6.4 0.00 0.00 0.00 23 1008.8
20260504190843 26 101 3.2 4.8 0.00 0.00 0.00 23 1008.9
20260504190339 25 47 1.6 3.2 0.00 0.00 0.00 24 1008.8
20260504185836 23 72 1.6 3.2 0.00 0.00 0.00 26 1008.9
20260504185333 24 100 3.2 4.8 0.00 0.00 0.00 24 1009.1
20260504184829 23 70 1.6 1.6 0.00 0.00 0.00 25 1009.2
20260504184325 23 87 1.6 4.8 0.00 0.00 0.00 27 1009.3
20260504183821 23 102 1.6 6.4 0.00 0.00 0.00 27 1009.3
20260504183318 23 141 3.2 3.2 0.00 0.00 0.00 25 1009.2
20260504182816 23 106 1.6 6.4 0.00 0.00 0.00 26 1009.2
20260504182313 23 115 3.2 6.4 0.00 0.00 0.00 26 1009.3
20260504181810 23 246 4.8 9.7 0.00 0.00 0.00 28 1009.4
20260504181308 23 134 3.2 6.4 0.00 0.00 0.00 26 1009.4
20260504180807 23 73 1.6 4.8 0.00 0.00 0.00 26 1009.7
20260504180305 23 53 3.2 11.3 0.00 0.00 0.00 26 1009.8
20260504175803 23 176 6.4 9.7 0.00 0.00 0.00 26 1009.7
20260504175259 23 128 1.6 9.7 0.00 0.00 0.00 27 1009.6
20260504174757 23 169 4.8 6.4 0.00 0.00 0.00 26 1009.7
20260504174254 23 116 3.2 4.8 0.00 0.00 0.00 28 1009.8
20260504173751 22 124 1.6 11.3 0.00 0.00 0.00 28 1010.0
20260504173248 22 233 6.4 12.9 0.00 0.00 0.00 28 1009.9
20260504172744 22 197 6.4 11.3 0.00 0.00 0.00 28 1010.0
20260504172241 22 228 6.4 11.3 0.00 0.00 0.00 28 1010.0
20260504171737 22 187 6.4 11.3 0.00 0.00 0.00 29 1009.9
20260504171234 22 225 3.2 12.9 0.00 0.00 0.00 28 1010.0
20260504170732 22 117 1.6 6.4 0.00 0.00 0.00 29 1010.0
20260504170229 22 197 6.4 12.9 0.00 0.00 0.00 28 1010.4
20260504160147 20 131 1.6 11.3 0.00 0.00 0.00 33 1010.2
20260504151114 18 202 1.6 9.7 0.00 0.00 0.00 38 1010.5
20260504150612 18 114 4.8 11.3 0.00 0.00 0.00 38 1010.5
20260504150109 18 23 6.4 12.9 0.00 0.00 0.00 38 1010.6